TimeEST,TemperatureF,Dew PointF,Humidity,Sea Level PressureIn,VisibilityMPH,Wind Direction,Wind SpeedMPH,Gust SpeedMPH,PrecipitationIn,Events,Conditions,WindDirDegrees,DateUTC
12:15 AM,64.4,60.8,88,30.03,10.0,South,5.8,-,N/A,,Mostly Cloudy,180,2013-01-16 05:15:00
12:35 AM,66.2,60.8,83,30.03,10.0,South,5.8,-,N/A,,Overcast,190,2013-01-16 05:35:00
1:15 AM,66.2,60.8,83,30.03,10.0,South,3.5,-,N/A,,Overcast,180,2013-01-16 06:15:00
1:35 AM,64.4,60.8,88,30.02,10.0,South,4.6,-,N/A,,Overcast,170,2013-01-16 06:35:00
1:55 AM,64.4,59.0,83,30.02,10.0,South,4.6,-,N/A,,Mostly Cloudy,180,2013-01-16 06:55:00
2:35 AM,62.6,60.8,94,30.02,10.0,South,3.5,-,N/A,,Clear,170,2013-01-16 07:35:00
2:55 AM,62.6,60.8,94,30.02,10.0,South,3.5,-,N/A,,Scattered Clouds,190,2013-01-16 07:55:00
3:15 AM,62.6,60.8,94,30.02,10.0,South,3.5,-,N/A,,Mostly Cloudy,180,2013-01-16 08:15:00
3:35 AM,60.8,60.8,100,30.02,10.0,Calm,Calm,-,N/A,,Mostly Cloudy,0,2013-01-16 08:35:00
3:55 AM,60.8,60.8,100,30.02,10.0,SSE,3.5,-,N/A,,Scattered Clouds,160,2013-01-16 08:55:00
4:15 AM,59.0,59.0,100,30.01,10.0,South,3.5,-,N/A,,Clear,170,2013-01-16 09:15:00
4:35 AM,59.0,59.0,100,30.01,10.0,SSE,4.6,-,N/A,,Clear,160,2013-01-16 09:35:00
4:55 AM,59.0,59.0,100,30.00,10.0,South,4.6,-,N/A,,Clear,170,2013-01-16 09:55:00
5:15 AM,59.0,59.0,100,30.00,10.0,South,4.6,-,N/A,,Clear,180,2013-01-16 10:15:00
5:35 AM,59.0,59.0,100,30.01,10.0,South,3.5,-,N/A,,Mostly Cloudy,180,2013-01-16 10:35:00
5:55 AM,59.0,59.0,100,30.01,10.0,South,4.6,-,N/A,,Mostly Cloudy,170,2013-01-16 10:55:00
6:15 AM,59.0,59.0,100,30.01,10.0,South,3.5,-,N/A,,Scattered Clouds,180,2013-01-16 11:15:00
6:55 AM,59.0,59.0,100,30.01,7.0,SSE,5.8,-,N/A,,Scattered Clouds,160,2013-01-16 11:55:00
7:35 AM,59.0,59.0,100,30.02,7.0,SSW,3.5,-,N/A,,Mostly Cloudy,210,2013-01-16 12:35:00
7:55 AM,59.0,59.0,100,30.03,5.0,South,3.5,-,N/A,,Overcast,190,2013-01-16 12:55:00
8:15 AM,59.0,59.0,100,30.03,7.0,South,4.6,-,N/A,,Overcast,180,2013-01-16 13:15:00
8:35 AM,59.0,59.0,100,30.05,7.0,Calm,Calm,-,N/A,,Overcast,0,2013-01-16 13:35:00
8:55 AM,60.8,60.8,100,30.05,10.0,SSW,3.5,-,N/A,,Scattered Clouds,200,2013-01-16 13:55:00
9:15 AM,62.6,62.6,100,30.05,10.0,SSW,5.8,-,N/A,,Clear,210,2013-01-16 14:15:00
9:35 AM,64.4,62.6,94,30.06,10.0,SW,6.9,-,N/A,,Scattered Clouds,220,2013-01-16 14:35:00
9:55 AM,66.2,62.6,88,30.06,10.0,SW,6.9,-,N/A,,Scattered Clouds,230,2013-01-16 14:55:00
10:15 AM,68.0,62.6,83,30.06,10.0,WSW,10.4,-,N/A,,Clear,250,2013-01-16 15:15:00
10:35 AM,69.8,60.8,73,30.05,10.0,WSW,6.9,-,N/A,,Clear,240,2013-01-16 15:35:00
10:55 AM,69.8,60.8,73,30.05,10.0,SW,12.7,17.3,N/A,,Clear,220,2013-01-16 15:55:00
11:15 AM,71.6,60.8,69,30.03,10.0,WSW,9.2,-,N/A,,Clear,240,2013-01-16 16:15:00
11:35 AM,73.4,59.0,61,30.02,10.0,SW,9.2,18.4,N/A,,Clear,220,2013-01-16 16:35:00
11:55 AM,73.4,59.0,61,30.01,10.0,SW,9.2,18.4,N/A,,Clear,220,2013-01-16 16:55:00
12:15 PM,75.2,59.0,57,30.00,10.0,SW,5.8,-,N/A,,Clear,230,2013-01-16 17:15:00
12:35 PM,77.0,60.8,57,29.99,10.0,West,11.5,-,N/A,,Clear,260,2013-01-16 17:35:00
12:55 PM,77.0,60.8,57,29.98,10.0,WSW,9.2,-,N/A,,Clear,240,2013-01-16 17:55:00
1:15 PM,77.0,60.8,57,29.98,10.0,WSW,6.9,-,N/A,,Clear,240,2013-01-16 18:15:00
1:35 PM,77.0,60.8,57,29.98,10.0,SW,10.4,-,N/A,,Clear,220,2013-01-16 18:35:00
1:55 PM,77.0,60.8,57,29.96,10.0,West,8.1,-,N/A,,Clear,260,2013-01-16 18:55:00
2:15 PM,78.8,60.8,54,29.96,10.0,SSW,6.9,-,N/A,,Scattered Clouds,200,2013-01-16 19:15:00
2:35 PM,77.0,60.8,57,29.95,10.0,SSW,5.8,-,N/A,,Scattered Clouds,200,2013-01-16 19:35:00
2:55 PM,78.8,60.8,54,29.95,10.0,SSW,5.8,-,N/A,,Clear,210,2013-01-16 19:55:00
3:15 PM,78.8,60.8,54,29.95,10.0,SSW,8.1,-,N/A,,Clear,210,2013-01-16 20:15:00
3:35 PM,77.0,60.8,57,29.95,10.0,WSW,8.1,-,N/A,,Clear,240,2013-01-16 20:35:00
3:55 PM,78.8,60.8,54,29.95,10.0,SW,10.4,-,N/A,,Scattered Clouds,230,2013-01-16 20:55:00
4:15 PM,77.0,60.8,57,29.96,10.0,SSW,8.1,-,N/A,,Scattered Clouds,210,2013-01-16 21:15:00
4:35 PM,77.0,60.8,57,29.96,10.0,SSW,6.9,-,N/A,,Clear,210,2013-01-16 21:35:00
4:55 PM,77.0,59.0,54,29.96,10.0,SSW,3.5,-,N/A,,Scattered Clouds,200,2013-01-16 21:55:00
5:15 PM,75.2,60.8,61,29.96,10.0,SSW,3.5,-,N/A,,Scattered Clouds,200,2013-01-16 22:15:00
5:35 PM,73.4,60.8,65,29.97,10.0,SSW,3.5,-,N/A,,Scattered Clouds,200,2013-01-16 22:35:00
5:55 PM,71.6,60.8,69,29.97,10.0,SSW,3.5,-,N/A,,Clear,200,2013-01-16 22:55:00
6:15 PM,69.8,60.8,73,29.97,10.0,Calm,Calm,-,N/A,,Clear,0,2013-01-16 23:15:00
6:35 PM,66.2,60.8,83,29.98,10.0,Calm,Calm,-,N/A,,Mostly Cloudy,0,2013-01-16 23:35:00
6:55 PM,68.0,60.8,78,29.98,10.0,Calm,Calm,-,N/A,,Mostly Cloudy,0,2013-01-16 23:55:00
7:15 PM,66.2,60.8,83,29.98,10.0,SSE,3.5,-,N/A,,Overcast,160,2013-01-17 00:15:00
7:35 PM,68.0,60.8,78,29.98,10.0,South,4.6,-,N/A,,Mostly Cloudy,170,2013-01-17 00:35:00
7:55 PM,68.0,60.8,78,29.98,10.0,Calm,Calm,-,N/A,,Scattered Clouds,0,2013-01-17 00:55:00
8:15 PM,68.0,60.8,78,29.99,10.0,South,3.5,-,N/A,,Scattered Clouds,180,2013-01-17 01:15:00
8:35 PM,68.0,60.8,78,29.99,10.0,South,3.5,-,N/A,,Scattered Clouds,170,2013-01-17 01:35:00
8:55 PM,66.2,60.8,83,29.99,10.0,South,5.8,-,N/A,,Mostly Cloudy,180,2013-01-17 01:55:00
9:15 PM,68.0,60.8,78,29.99,10.0,South,5.8,-,N/A,,Overcast,190,2013-01-17 02:15:00
9:35 PM,68.0,60.8,78,29.99,10.0,South,5.8,-,N/A,,Overcast,190,2013-01-17 02:35:00
9:55 PM,69.8,60.8,73,29.99,10.0,SSW,6.9,-,N/A,,Overcast,210,2013-01-17 02:55:00
10:15 PM,68.0,60.8,78,29.99,10.0,SSW,5.8,-,N/A,,Overcast,210,2013-01-17 03:15:00
10:35 PM,68.0,60.8,78,29.98,10.0,SSW,4.6,-,N/A,,Overcast,200,2013-01-17 03:35:00
10:55 PM,68.0,60.8,78,29.98,10.0,SSW,6.9,-,N/A,,Overcast,210,2013-01-17 03:55:00
11:15 PM,68.0,60.8,78,29.98,10.0,SSW,6.9,-,N/A,,Overcast,210,2013-01-17 04:15:00
11:35 PM,69.8,60.8,73,29.98,10.0,SW,5.8,-,N/A,,Overcast,220,2013-01-17 04:35:00
11:55 PM,68.0,60.8,78,29.98,10.0,WSW,5.8,-,N/A,,Overcast,240,2013-01-17 04:55:00